JST500 YMML-YSSY

Flight info

Callsign JST500
Flight time 1h 2m
Altitude 35000
Route DOSEL Y59 RIVET
Aircraft A320/M-SDE3FGHIRWY/LB1

Departure

Time 2026-05-05 18:56
Airport Melbourne Airport (YMML)

Arrival

Time 2026-05-05 19:58
Airport Sydney Kingsford Smith International Airport (YSSY)
Time Latitude Longitude Altitude Speed Heading
2026-05-05 18:32 -37.67527 144.84638 379 ft 0 kts 172°
2026-05-05 18:48 -37.67505 144.84635 379 ft 4 kts 173°
2026-05-05 18:49 -37.67478 144.84630 380 ft 4 kts 169°
2026-05-05 18:49 -37.67454 144.84620 380 ft 4 kts 124°
2026-05-05 18:49 -37.67453 144.84593 380 ft 4 kts 71°
2026-05-05 18:49 -37.67465 144.84564 379 ft 4 kts 41°
2026-05-05 18:50 -37.67487 144.84548 378 ft 4 kts 13°
2026-05-05 18:50 -37.67514 144.84544 378 ft 4 kts 356°
2026-05-05 18:50 -37.67541 144.84548 377 ft 4 kts 349°
2026-05-05 18:50 -37.67559 144.84552 376 ft 1 kts 351°
2026-05-05 18:53 -37.67552 144.84551 376 ft 4 kts 351°
2026-05-05 18:53 -37.67510 144.84543 378 ft 8 kts 348°
2026-05-05 18:53 -37.67466 144.84495 378 ft 9 kts 289°
2026-05-05 18:54 -37.67475 144.84402 377 ft 13 kts 263°
2026-05-05 18:54 -37.67488 144.84275 374 ft 17 kts 260°
2026-05-05 18:54 -37.67538 144.84135 370 ft 20 kts 201°
2026-05-05 18:54 -37.67687 144.84151 367 ft 19 kts 172°
2026-05-05 18:55 -37.67824 144.84177 362 ft 19 kts 184°
2026-05-05 18:55 -37.67884 144.84029 360 ft 23 kts 267°
2026-05-05 18:55 -37.67780 144.83953 359 ft 25 kts 349°
2026-05-05 18:55 -37.67396 144.83879 370 ft 87 kts 352°
2026-05-05 18:56 -37.66629 144.83735 400 ft 134 kts 351°
2026-05-05 18:56 -37.65615 144.83556 700 ft 149 kts 352°
2026-05-05 18:56 -37.64583 144.83362 1341 ft 150 kts 350°
2026-05-05 18:56 -37.63576 144.83165 1957 ft 151 kts 348°
2026-05-05 18:57 -37.62509 144.82954 2312 ft 167 kts 348°
2026-05-05 18:57 -37.61289 144.82710 2576 ft 189 kts 348°
2026-05-05 18:57 -37.59899 144.82451 2835 ft 215 kts 354°
2026-05-05 18:57 -37.58343 144.82737 3195 ft 242 kts 20°
2026-05-05 18:58 -37.56747 144.83683 3720 ft 260 kts 24°
2026-05-05 18:58 -37.55100 144.84693 4573 ft 266 kts 25°
2026-05-05 18:58 -37.53428 144.85721 5469 ft 269 kts 24°
2026-05-05 18:58 -37.51729 144.86760 6307 ft 274 kts 23°
2026-05-05 18:59 -37.49999 144.87813 7111 ft 279 kts 23°
2026-05-05 18:59 -37.48240 144.88882 7910 ft 282 kts 23°
2026-05-05 18:59 -37.46462 144.89961 8733 ft 285 kts 23°
2026-05-05 18:59 -37.44689 144.91113 9542 ft 290 kts 30°
2026-05-05 19:00 -37.43597 144.92160 10081 ft 295 kts 40°
2026-05-05 19:00 -37.43410 144.92381 10172 ft 296 kts 42°
2026-05-05 19:00 -37.42064 144.94428 10549 ft 317 kts 52°
2026-05-05 19:00 -37.40738 144.96771 10811 ft 336 kts 52°
2026-05-05 19:01 -37.39379 144.99198 11407 ft 342 kts 52°
2026-05-05 19:01 -37.38007 145.01658 12093 ft 345 kts 52°
2026-05-05 19:01 -37.36615 145.04141 12802 ft 348 kts 52°
2026-05-05 19:01 -37.35208 145.06632 13501 ft 351 kts 52°
2026-05-05 19:02 -37.33783 145.09144 14168 ft 354 kts 52°
2026-05-05 19:02 -37.32345 145.11679 14762 ft 357 kts 52°
2026-05-05 19:02 -37.30897 145.14233 15342 ft 360 kts 52°
2026-05-05 19:02 -37.29435 145.16811 15917 ft 363 kts 52°
2026-05-05 19:03 -37.27965 145.19402 16500 ft 366 kts 52°
2026-05-05 19:03 -37.26476 145.22023 17065 ft 370 kts 52°
2026-05-05 19:03 -37.24977 145.24662 17648 ft 373 kts 52°
2026-05-05 19:03 -37.23465 145.27321 18219 ft 376 kts 52°
2026-05-05 19:04 -37.21935 145.30006 18750 ft 379 kts 52°
2026-05-05 19:04 -37.20392 145.32710 19273 ft 382 kts 52°
2026-05-05 19:04 -37.18839 145.35426 19811 ft 384 kts 51°
2026-05-05 19:04 -37.17294 145.38126 20342 ft 386 kts 51°
2026-05-05 19:05 -37.15706 145.40907 20874 ft 389 kts 51°
2026-05-05 19:05 -37.14125 145.43672 21384 ft 391 kts 51°
2026-05-05 19:05 -37.12539 145.46443 21868 ft 393 kts 51°
2026-05-05 19:05 -37.10939 145.49232 22355 ft 395 kts 51°
2026-05-05 19:06 -37.09334 145.52030 22842 ft 397 kts 51°
2026-05-05 19:06 -37.07739 145.54806 23320 ft 399 kts 51°
2026-05-05 19:06 -37.06094 145.57669 23811 ft 401 kts 51°
2026-05-05 19:06 -37.04462 145.60506 24206 ft 403 kts 51°
2026-05-05 19:07 -37.02842 145.63324 24578 ft 406 kts 51°
2026-05-05 19:07 -37.01188 145.66194 24947 ft 408 kts 51°
2026-05-05 19:07 -36.99519 145.69087 25312 ft 411 kts 51°
2026-05-05 19:07 -36.97838 145.71996 25678 ft 414 kts 51°
2026-05-05 19:08 -36.96147 145.74920 26042 ft 416 kts 51°
2026-05-05 19:08 -36.94443 145.77866 26402 ft 419 kts 51°
2026-05-05 19:08 -36.92729 145.80827 26751 ft 422 kts 51°
2026-05-05 19:08 -36.91006 145.83800 27108 ft 424 kts 51°
2026-05-05 19:09 -36.89267 145.86797 27454 ft 427 kts 51°
2026-05-05 19:09 -36.87517 145.89811 27802 ft 430 kts 51°
2026-05-05 19:09 -36.85756 145.92840 28147 ft 432 kts 51°
2026-05-05 19:09 -36.83984 145.95885 28490 ft 435 kts 51°
2026-05-05 19:10 -36.82199 145.98949 28839 ft 438 kts 51°
2026-05-05 19:10 -36.80398 146.02036 29040 ft 444 kts 51°
2026-05-05 19:10 -36.78568 146.05171 29203 ft 450 kts 51°
2026-05-05 19:10 -36.76718 146.08340 29519 ft 453 kts 51°
2026-05-05 19:11 -36.74865 146.11516 29932 ft 453 kts 51°
2026-05-05 19:11 -36.73011 146.14692 30370 ft 453 kts 51°
2026-05-05 19:11 -36.71157 146.17864 30739 ft 453 kts 51°
2026-05-05 19:11 -36.69294 146.21041 31086 ft 454 kts 51°
2026-05-05 19:12 -36.67425 146.24226 31434 ft 455 kts 51°
2026-05-05 19:12 -36.65554 146.27411 31780 ft 456 kts 51°
2026-05-05 19:12 -36.63679 146.30601 32131 ft 457 kts 51°
2026-05-05 19:12 -36.61800 146.33797 32481 ft 458 kts 51°
2026-05-05 19:13 -36.59920 146.36996 32831 ft 459 kts 51°
2026-05-05 19:13 -36.58037 146.40204 33183 ft 460 kts 51°
2026-05-05 19:13 -36.56147 146.43419 33535 ft 460 kts 51°
2026-05-05 19:13 -36.54251 146.46635 33891 ft 461 kts 51°
2026-05-05 19:14 -36.52349 146.49850 34232 ft 462 kts 51°
2026-05-05 19:14 -36.50440 146.53068 34535 ft 462 kts 51°
2026-05-05 19:14 -36.48530 146.56286 34858 ft 462 kts 51°
2026-05-05 19:14 -36.46624 146.59496 35149 ft 462 kts 51°
2026-05-05 19:15 -36.42804 146.65927 35246 ft 472 kts 51°
2026-05-05 19:15 -36.38842 146.72583 35238 ft 483 kts 51°
2026-05-05 19:16 -36.34848 146.79293 35242 ft 484 kts 51°
2026-05-05 19:16 -36.31495 146.84921 35243 ft 484 kts 51°
2026-05-05 19:17 -36.27514 146.91588 35241 ft 484 kts 51°
2026-05-05 19:17 -36.23499 146.98283 35242 ft 484 kts 51°
2026-05-05 19:18 -36.19482 147.04974 35242 ft 484 kts 51°
2026-05-05 19:18 -36.15465 147.11667 35246 ft 484 kts 51°
2026-05-05 19:19 -36.11443 147.18348 35241 ft 484 kts 51°
2026-05-05 19:19 -36.07413 147.25014 35246 ft 484 kts 51°
2026-05-05 19:20 -36.03381 147.31682 35246 ft 484 kts 51°
2026-05-05 19:20 -35.99342 147.38344 35248 ft 484 kts 51°
2026-05-05 19:21 -35.95306 147.44988 35249 ft 484 kts 51°
2026-05-05 19:21 -35.91265 147.51620 35246 ft 484 kts 51°
2026-05-05 19:22 -35.87224 147.58258 35249 ft 484 kts 51°
2026-05-05 19:22 -35.83177 147.64884 35246 ft 484 kts 50°
2026-05-05 19:23 -35.79120 147.71505 35250 ft 484 kts 50°
2026-05-05 19:23 -35.75062 147.78125 35253 ft 484 kts 50°
2026-05-05 19:24 -35.70994 147.84741 35257 ft 484 kts 50°
2026-05-05 19:24 -35.66928 147.91345 35260 ft 484 kts 50°
2026-05-05 19:25 -35.62859 147.97945 35260 ft 484 kts 50°
2026-05-05 19:25 -35.58786 148.04535 35260 ft 484 kts 50°
2026-05-05 19:26 -35.54707 148.11121 35258 ft 484 kts 50°
2026-05-05 19:26 -35.50620 148.17697 35263 ft 484 kts 50°
2026-05-05 19:27 -35.46529 148.24275 35267 ft 484 kts 50°
2026-05-05 19:27 -35.42441 148.30839 35267 ft 485 kts 50°
2026-05-05 19:28 -35.38349 148.37408 35267 ft 485 kts 50°
2026-05-05 19:28 -35.34257 148.43972 35274 ft 485 kts 50°
2026-05-05 19:29 -35.30157 148.50530 35271 ft 485 kts 50°
2026-05-05 19:29 -35.26052 148.57072 35277 ft 484 kts 50°
2026-05-05 19:30 -35.21942 148.63604 35275 ft 484 kts 50°
2026-05-05 19:30 -35.17838 148.70123 35280 ft 484 kts 50°
2026-05-05 19:31 -35.13755 148.76592 35280 ft 484 kts 50°
2026-05-05 19:31 -35.09640 148.83094 35281 ft 484 kts 50°
2026-05-05 19:32 -35.05497 148.89627 35278 ft 483 kts 50°
2026-05-05 19:32 -35.01408 148.96075 35280 ft 483 kts 50°
2026-05-05 19:33 -34.97296 149.02559 35282 ft 483 kts 50°
2026-05-05 19:33 -34.93177 149.09027 35282 ft 483 kts 50°
2026-05-05 19:34 -34.89056 149.15489 35286 ft 483 kts 50°
2026-05-05 19:35 -34.82875 149.25165 35287 ft 482 kts 50°
2026-05-05 19:35 -34.78744 149.31596 35282 ft 482 kts 49°
2026-05-05 19:36 -34.74635 149.38042 35289 ft 483 kts 53°
2026-05-05 19:36 -34.71313 149.45154 35288 ft 485 kts 60°
2026-05-05 19:37 -34.68088 149.52347 35286 ft 482 kts 53°
2026-05-05 19:37 -34.64211 149.58989 35298 ft 482 kts 52°
2026-05-05 19:38 -34.60350 149.65559 35289 ft 482 kts 52°
2026-05-05 19:38 -34.56448 149.72170 35295 ft 481 kts 52°
2026-05-05 19:39 -34.52544 149.78763 35297 ft 481 kts 52°
2026-05-05 19:39 -34.48646 149.85354 34520 ft 485 kts 52°
2026-05-05 19:39 -34.46673 149.88691 33801 ft 485 kts 53°
2026-05-05 19:40 -34.44716 149.92007 33062 ft 484 kts 52°
2026-05-05 19:40 -34.42746 149.95336 32198 ft 486 kts 52°
2026-05-05 19:40 -34.40767 149.98664 31331 ft 488 kts 52°
2026-05-05 19:40 -34.38772 150.02006 30446 ft 491 kts 52°
2026-05-05 19:41 -34.36765 150.05362 29423 ft 493 kts 52°
2026-05-05 19:41 -34.34756 150.08729 28383 ft 495 kts 52°
2026-05-05 19:41 -34.32738 150.12113 27308 ft 497 kts 52°
2026-05-05 19:41 -34.30709 150.15512 26210 ft 499 kts 52°
2026-05-05 19:42 -34.28676 150.18913 25097 ft 501 kts 52°
2026-05-05 19:42 -34.26629 150.22333 24146 ft 500 kts 52°
2026-05-05 19:42 -34.24602 150.25715 23283 ft 494 kts 52°
2026-05-05 19:42 -34.22599 150.29061 22387 ft 488 kts 52°
2026-05-05 19:43 -34.20622 150.32366 21511 ft 482 kts 52°
2026-05-05 19:43 -34.18671 150.35624 20648 ft 476 kts 52°
2026-05-05 19:43 -34.16765 150.38802 19843 ft 471 kts 53°
2026-05-05 19:43 -34.14853 150.41977 19060 ft 465 kts 52°
2026-05-05 19:44 -34.12956 150.45117 18253 ft 460 kts 52°
2026-05-05 19:44 -34.11078 150.48220 17373 ft 455 kts 52°
2026-05-05 19:44 -34.09229 150.51278 16546 ft 448 kts 53°
2026-05-05 19:44 -34.07404 150.54299 15744 ft 443 kts 53°
2026-05-05 19:45 -34.05608 150.57279 14978 ft 437 kts 53°
2026-05-05 19:45 -34.03832 150.60225 14253 ft 432 kts 53°
2026-05-05 19:45 -34.02088 150.63113 13957 ft 416 kts 53°
2026-05-05 19:45 -34.00422 150.65871 13810 ft 398 kts 53°
2026-05-05 19:46 -33.98827 150.68505 13681 ft 380 kts 53°
2026-05-05 19:46 -33.97299 150.71025 13544 ft 364 kts 53°
2026-05-05 19:46 -33.95831 150.73439 13416 ft 350 kts 52°
2026-05-05 19:46 -33.94423 150.75751 13245 ft 333 kts 52°
2026-05-05 19:47 -33.93082 150.77953 12808 ft 321 kts 52°
2026-05-05 19:47 -33.91776 150.80094 12307 ft 313 kts 52°
2026-05-05 19:47 -33.90502 150.82183 11803 ft 306 kts 53°
2026-05-05 19:47 -33.89256 150.84228 11309 ft 300 kts 53°
2026-05-05 19:48 -33.88038 150.86228 10828 ft 295 kts 53°
2026-05-05 19:48 -33.86906 150.88088 10376 ft 291 kts 53°
2026-05-05 19:48 -33.85736 150.90005 9898 ft 286 kts 53°
2026-05-05 19:48 -33.84569 150.91922 9368 ft 282 kts 53°
2026-05-05 19:49 -33.83416 150.93817 8850 ft 278 kts 53°
2026-05-05 19:49 -33.82646 150.95078 8503 ft 276 kts 53°
2026-05-05 19:49 -33.81151 150.97520 7832 ft 271 kts 53°
2026-05-05 19:49 -33.80040 150.99336 7306 ft 269 kts 53°
2026-05-05 19:50 -33.78736 151.00960 6573 ft 274 kts 32°
2026-05-05 19:50 -33.76942 151.01727 5799 ft 279 kts
2026-05-05 19:50 -33.75027 151.01444 5224 ft 277 kts 347°
2026-05-05 19:50 -33.73149 151.01155 4894 ft 270 kts
2026-05-05 19:51 -33.71436 151.01898 4670 ft 259 kts 37°
2026-05-05 19:51 -33.70301 151.03487 4507 ft 249 kts 67°
2026-05-05 19:51 -33.70014 151.05469 4376 ft 239 kts 97°
2026-05-05 19:51 -33.70616 151.07264 4247 ft 231 kts 126°
2026-05-05 19:52 -33.71649 151.08692 4128 ft 223 kts 132°
2026-05-05 19:52 -33.72688 151.09993 3997 ft 214 kts 133°
2026-05-05 19:52 -33.73708 151.11252 3869 ft 207 kts 133°
2026-05-05 19:52 -33.74650 151.12412 3751 ft 199 kts 133°
2026-05-05 19:53 -33.75170 151.13048 3672 ft 195 kts 134°
2026-05-05 19:53 -33.76292 151.13955 3545 ft 191 kts 158°
2026-05-05 19:53 -33.77553 151.14325 3458 ft 183 kts 165°
2026-05-05 19:53 -33.78136 151.14475 3398 ft 181 kts 165°
2026-05-05 19:54 -33.78501 151.14568 3340 ft 179 kts 166°
2026-05-05 19:54 -33.79720 151.14882 3134 ft 177 kts 165°
2026-05-05 19:54 -33.80884 151.15183 2927 ft 165 kts 165°
2026-05-05 19:54 -33.81949 151.15458 2710 ft 150 kts 165°
2026-05-05 19:55 -33.82949 151.15718 2502 ft 145 kts 166°
2026-05-05 19:55 -33.83928 151.15972 2309 ft 143 kts 167°
2026-05-05 19:55 -33.84892 151.16222 2121 ft 141 kts 167°
2026-05-05 19:55 -33.85848 151.16469 1920 ft 140 kts 167°
2026-05-05 19:56 -33.86801 151.16716 1744 ft 140 kts 167°
2026-05-05 19:56 -33.87753 151.16963 1546 ft 140 kts 168°
2026-05-05 19:56 -33.88693 151.17206 1366 ft 140 kts 168°
2026-05-05 19:56 -33.89641 151.17452 1176 ft 139 kts 169°
2026-05-05 19:57 -33.90590 151.17698 981 ft 140 kts 170°
2026-05-05 19:57 -33.91238 151.17866 849 ft 142 kts 169°
2026-05-05 19:57 -33.92515 151.18196 605 ft 146 kts 170°
2026-05-05 19:57 -33.93510 151.18455 401 ft 147 kts 169°
2026-05-05 19:58 -33.94516 151.18715 203 ft 148 kts 168°
2026-05-05 19:58 -33.95523 151.18973 30 ft 144 kts 169°
2026-05-05 19:58 -33.96302 151.19176 28 ft 82 kts 169°
2026-05-05 19:58 -33.96693 151.19278 23 ft 37 kts 169°
2026-05-05 19:59 -33.96943 151.19284 27 ft 29 kts 188°
2026-05-05 19:59 -33.97050 151.19259 28 ft 13 kts 192°
2026-05-05 19:59 -33.97122 151.19205 30 ft 13 kts 260°
2026-05-05 19:59 -33.97066 151.19137 30 ft 13 kts 333°
2026-05-05 20:00 -33.96973 151.19104 30 ft 15 kts 347°
2026-05-05 20:00 -33.96861 151.19075 30 ft 18 kts 349°
2026-05-05 20:00 -33.96733 151.19074 30 ft 20 kts 14°
2026-05-05 20:00 -33.96591 151.19049 30 ft 22 kts 348°
2026-05-05 20:01 -33.96435 151.19007 30 ft 24 kts 348°
2026-05-05 20:01 -33.96266 151.18965 30 ft 26 kts 348°
2026-05-05 20:01 -33.96083 151.18917 30 ft 28 kts 348°
2026-05-05 20:01 -33.95892 151.18867 30 ft 27 kts 348°
2026-05-05 20:02 -33.95720 151.18824 30 ft 26 kts 347°
2026-05-05 20:02 -33.95535 151.18773 30 ft 28 kts 347°
2026-05-05 20:02 -33.95361 151.18730 30 ft 25 kts 349°
2026-05-05 20:02 -33.95207 151.18644 30 ft 23 kts 318°
2026-05-05 20:03 -33.95119 151.18547 30 ft 13 kts 317°
2026-05-05 20:03 -33.95045 151.18473 30 ft 15 kts 295°
2026-05-05 20:03 -33.95057 151.18342 30 ft 17 kts 257°
2026-05-05 20:03 -33.95083 151.18192 30 ft 20 kts 258°
2026-05-05 20:04 -33.95099 151.18062 30 ft 16 kts 284°
2026-05-05 20:04 -33.95001 151.18005 30 ft 18 kts 348°
2026-05-05 20:04 -33.94872 151.17972 30 ft 20 kts 348°
2026-05-05 20:04 -33.94725 151.17934 30 ft 23 kts 348°
2026-05-05 20:05 -33.94578 151.17899 30 ft 21 kts 350°
2026-05-05 20:05 -33.94447 151.17911 30 ft 20 kts 15°
2026-05-05 20:05 -33.94314 151.17887 30 ft 20 kts 348°
2026-05-05 20:05 -33.94220 151.17862 30 ft 22 kts 347°
2026-05-05 20:06 -33.94068 151.17822 29 ft 24 kts 348°
2026-05-05 20:06 -33.93905 151.17781 29 ft 17 kts 348°
2026-05-05 20:06 -33.93813 151.17762 30 ft 11 kts
2026-05-05 20:06 -33.93736 151.17783 30 ft 12 kts 14°
2026-05-05 20:07 -33.93654 151.17808 30 ft 10 kts 14°
2026-05-05 20:07 -33.93581 151.17828 30 ft 9 kts
2026-05-05 20:07 -33.93534 151.17829 30 ft 3 kts 326°
2026-05-05 20:07 -33.93529 151.17797 30 ft 3 kts 281°
2026-05-05 20:08 -33.93526 151.17775 30 ft 2 kts 280°
2026-05-05 20:08 -33.93524 151.17766 30 ft 0 kts 279°
2026-05-05 20:08 -33.93524 151.17765 30 ft 0 kts 279°